Orbital Elements at Epoch 2459200.5 (2020-Dec-17.0) TDB
Reference: JPL 17 (heliocentric ecliptic J2000)
Element | Value | Uncertainty (1-sigma) | Units |
e | .1016336969739509 | 4.7869e-08 | |
a | 2.313294696073383 | 1.3912e-08 | au |
q | 2.078186003921213 | 1.1285e-07 | au |
i | 6.612632921839908 | 5.8677e-06 | deg |
node | 38.21071647385677 | 3.3598e-05 | deg |
peri | 140.0361964180532 | 4.4794e-05 | deg |
M | 245.8414641396326 | 2.9647e-05 | deg |
tp | 2459608.021718802499 (2022-Jan-28.52171880) | 0.00010759 | TDB |
period | 1285.123514095737 3.52 | 1.1593e-05 3.174e-08 | d yr |
n | .2801287160738865 | 2.527e-09 | deg/d |
Q | 2.548403388225553 | 1.5326e-08 | au |
|
| | Orbit Determination Parameters
Additional Information
|